• In Netherlands
  • List of Countries
  • For 7 days
  • Water Temperature
  • Satellite Maps
  • Weather Map
  • Weather Widgets
  • user-avatar
    Login

    Hourly Weather Sylhet

    Today, 21 January, Saturday

    Time Temperature Precipitation Wind Pressure Humidity
    00:00 +16°C° 0 mm 1 mps 761 mmHg 48%
    01:00 +15°C° 0 mm 1 mps 761 mmHg 51%
    02:00 +15°C° 0 mm 1 mps 761 mmHg 53%
    03:00 +15°C° 0 mm 1 mps 761 mmHg 56%
    04:00 +14°C° 0 mm 1 mps 761 mmHg 58%
    05:00 +14°C° 0 mm 1 mps 761 mmHg 60%
    06:00 +14°C° 0 mm 1 mps 761 mmHg 62%
    07:00 +18°C° 0 mm 1 mps 762 mmHg 57%
    08:00 +20°C° 0 mm 1 mps 762 mmHg 53%
    09:00 +23°C° 0 mm 2 mps 762 mmHg 48%
    10:00 +25°C° 0 mm 1 mps 762 mmHg 43%
    11:00 +27°C° 0 mm 1 mps 762 mmHg 37%
    12:00 +29°C° 0 mm 1 mps 762 mmHg 32%
    13:00 +30°C° 0 mm 1 mps 761 mmHg 30%
    14:00 +30°C° 0 mm 1 mps 760 mmHg 28%
    15:00 +31°C° 0 mm 1 mps 760 mmHg 26%
    16:00 +28°C° 0 mm 1 mps 760 mmHg 33%
    17:00 +25°C° 0 mm 1 mps 760 mmHg 39%
    18:00 +22°C° 0 mm 1 mps 760 mmHg 46%
    19:00 +20°C° 0 mm 2 mps 761 mmHg 47%
    20:00 +20°C° 0 mm 2 mps 761 mmHg 48%
    21:00 +19°C° 0 mm 2 mps 762 mmHg 49%
    22:00 +18°C° 0 mm 2 mps 762 mmHg 50%
    23:00 +18°C° 0 mm 1 mps 762 mmHg 50%

    Tomorrow, 22 January, Sunday

    Time Temperature Precipitation Wind Pressure Humidity
    00:00 +16°C° 0 mm 1 mps 762 mmHg 51%
    01:00 +16°C° 0 mm 1 mps 762 mmHg 53%
    02:00 +16°C° 0 mm 1 mps 762 mmHg 55%
    03:00 +15°C° 0 mm 1 mps 762 mmHg 56%
    04:00 +15°C° 0 mm 1 mps 762 mmHg 58%
    05:00 +15°C° 0 mm 1 mps 762 mmHg 59%
    06:00 +14°C° 0 mm 1 mps 762 mmHg 61%
    07:00 +18°C° 0 mm 1 mps 762 mmHg 55%
    08:00 +21°C° 0 mm 1 mps 763 mmHg 49%
    09:00 +23°C° 0 mm 2 mps 763 mmHg 43%
    10:00 +25°C° 0 mm 1 mps 763 mmHg 38%
    11:00 +28°C° 0 mm 1 mps 762 mmHg 33%
    12:00 +30°C° 0 mm 1 mps 762 mmHg 28%
    13:00 +30°C° 0 mm 1 mps 761 mmHg 26%
    14:00 +31°C° 0 mm 1 mps 760 mmHg 24%
    15:00 +31°C° 0 mm 1 mps 759 mmHg 23%
    16:00 +28°C° 0 mm 1 mps 759 mmHg 30%
    17:00 +25°C° 0 mm 1 mps 759 mmHg 37%
    18:00 +22°C° 0 mm 1 mps 760 mmHg 44%
    19:00 +21°C° 0 mm 1 mps 760 mmHg 46%
    20:00 +20°C° 0 mm 1 mps 761 mmHg 48%
    21:00 +19°C° 0 mm 1 mps 761 mmHg 49%
    22:00 +18°C° 0 mm 1 mps 761 mmHg 52%
    23:00 +18°C° 0 mm 1 mps 761 mmHg 54%

    Day after tomorrow, 23 January, Monday

    Time Temperature Precipitation Wind Pressure Humidity
    00:00 +16°C° 0 mm 1 mps 761 mmHg 56%
    01:00 +16°C° 0 mm 1 mps 761 mmHg 55%
    02:00 +15°C° 0 mm 1 mps 761 mmHg 55%
    03:00 +15°C° 0 mm 1 mps 761 mmHg 54%
    04:00 +15°C° 0 mm 1 mps 761 mmHg 53%
    05:00 +15°C° 0 mm 1 mps 761 mmHg 53%
    06:00 +15°C° 0 mm 1 mps 761 mmHg 52%
    07:00 +18°C° 0 mm 1 mps 761 mmHg 46%
    08:00 +21°C° 0 mm 1 mps 762 mmHg 41%
    09:00 +24°C° 0 mm 1 mps 762 mmHg 36%
    10:00 +26°C° 0 mm 1 mps 762 mmHg 32%
    11:00 +28°C° 0 mm 1 mps 761 mmHg 28%
    12:00 +30°C° 0 mm 1 mps 761 mmHg 24%
    13:00 +30°C° 0 mm 1 mps 760 mmHg 24%
    14:00 +31°C° 0 mm 1 mps 759 mmHg 23%
    15:00 +31°C° 0 mm 1 mps 758 mmHg 22%
    16:00 +28°C° 0 mm 1 mps 759 mmHg 29%
    17:00 +25°C° 0 mm 1 mps 759 mmHg 35%
    18:00 +22°C° 0 mm 1 mps 759 mmHg 42%
    19:00 +21°C° 0 mm 1 mps 760 mmHg 44%
    20:00 +20°C° 0 mm 1 mps 760 mmHg 45%
    21:00 +19°C° 0 mm 1 mps 761 mmHg 47%
    22:00 +19°C° 0 mm 1 mps 761 mmHg 48%
    23:00 +18°C° 0 mm 1 mps 761 mmHg 48%

    24 January, Tuesday

    Time Temperature Precipitation Wind Pressure Humidity
    00:00 +18°C° 0 mm 1 mps 761 mmHg 49%
    01:00 +16°C° 0 mm 1 mps 760 mmHg 49%
    02:00 +16°C° 0 mm 1 mps 760 mmHg 49%
    03:00 +16°C° 0 mm 1 mps 760 mmHg 49%
    04:00 +15°C° 0 mm 1 mps 760 mmHg 49%
    05:00 +15°C° 0 mm 1 mps 760 mmHg 49%
    06:00 +15°C° 0 mm 2 mps 760 mmHg 49%
    07:00 +18°C° 0 mm 2 mps 761 mmHg 45%
    08:00 +21°C° 0 mm 1 mps 761 mmHg 40%
    09:00 +23°C° 0 mm 1 mps 762 mmHg 36%
    10:00 +26°C° 0 mm 1 mps 762 mmHg 31%
    11:00 +28°C° 0 mm 1 mps 761 mmHg 27%
    12:00 +30°C° 0 mm 1 mps 761 mmHg 23%
    13:00 +31°C° 0 mm 1 mps 760 mmHg 22%
    14:00 +31°C° 0 mm 1 mps 759 mmHg 21%
    15:00 +29°C° 0 mm 0 mps 759 mmHg 20%
    16:00 +28°C° 0 mm 1 mps 759 mmHg 27%
    17:00 +25°C° 0 mm 1 mps 759 mmHg 33%
    18:00 +21°C° 0 mm 1 mps 760 mmHg 39%
    19:00 +21°C° 0 mm 1 mps 760 mmHg 40%
    20:00 +20°C° 0 mm 1 mps 761 mmHg 41%
    21:00 +20°C° 0 mm 1 mps 762 mmHg 42%
    22:00 +20°C° 0 mm 1 mps 762 mmHg 41%
    23:00 +19°C° 0 mm 1 mps 762 mmHg 40%

    25 January, Wednesday

    Time Temperature Precipitation Wind Pressure Humidity
    00:00 +18°C° 0 mm 2 mps 762 mmHg 39%
    01:00 +17°C° 0 mm 2 mps 762 mmHg 40%
    02:00 +17°C° 0 mm 2 mps 762 mmHg 42%
    03:00 +16°C° 0 mm 2 mps 761 mmHg 43%
    04:00 +16°C° 0 mm 2 mps 762 mmHg 45%
    05:00 +16°C° 0 mm 2 mps 762 mmHg 46%
    06:00 +16°C° 0 mm 2 mps 762 mmHg 48%
    07:00 +18°C° 0 mm 2 mps 763 mmHg 45%
    08:00 +20°C° 0 mm 2 mps 763 mmHg 42%
    09:00 +24°C° 0 mm 2 mps 764 mmHg 39%
    10:00 +26°C° 0 mm 2 mps 763 mmHg 34%
    11:00 +29°C° 0 mm 2 mps 763 mmHg 29%
    12:00 +31°C° 0 mm 2 mps 762 mmHg 24%
    13:00 +32°C° 0 mm 1 mps 762 mmHg 23%
    14:00 +32°C° 0 mm 1 mps 761 mmHg 21%
    15:00 +33°C° 0 mm 1 mps 760 mmHg 20%
    16:00 +29°C° 0 mm 1 mps 760 mmHg 28%
    17:00 +25°C° 0 mm 1 mps 761 mmHg 36%
    18:00 +21°C° 0 mm 1 mps 761 mmHg 44%
    19:00 +21°C° 0 mm 1 mps 761 mmHg 43%
    20:00 +21°C° 0 mm 1 mps 762 mmHg 41%
    21:00 +21°C° 0 mm 1 mps 762 mmHg 40%
    22:00 +21°C° 0 mm 1 mps 762 mmHg 38%
    23:00 +19°C° 0 mm 2 mps 762 mmHg 37%

    26 January, Thursday

    Time Temperature Precipitation Wind Pressure Humidity
    00:00 +19°C° 0 mm 2 mps 762 mmHg 35%
    01:00 +18°C° 0 mm 2 mps 762 mmHg 37%
    02:00 +18°C° 0 mm 2 mps 762 mmHg 39%
    03:00 +17°C° 0 mm 2 mps 762 mmHg 41%
    04:00 +17°C° 0 mm 2 mps 762 mmHg 43%
    05:00 +16°C° 0 mm 2 mps 762 mmHg 46%
    06:00 +16°C° 0 mm 2 mps 762 mmHg 49%
    07:00 +18°C° 0 mm 2 mps 762 mmHg 46%
    08:00 +21°C° 0 mm 2 mps 763 mmHg 43%
    09:00 +24°C° 0 mm 2 mps 763 mmHg 40%
    10:00 +27°C° 0 mm 2 mps 763 mmHg 35%
    11:00 +29°C° 0 mm 2 mps 762 mmHg 30%
    12:00 +32°C° 0 mm 1 mps 762 mmHg 25%
    13:00 +32°C° 0 mm 1 mps 761 mmHg 24%
    14:00 +33°C° 0 mm 1 mps 760 mmHg 22%
    15:00 +31°C° 0 mm 0 mps 759 mmHg 21%
    16:00 +30°C° 0 mm 1 mps 760 mmHg 28%
    17:00 +26°C° 0 mm 1 mps 760 mmHg 35%
    18:00 +22°C° 0 mm 1 mps 760 mmHg 41%
    19:00 +22°C° 0 mm 1 mps 760 mmHg 43%
    20:00 +21°C° 0 mm 1 mps 760 mmHg 44%
    21:00 +21°C° 0 mm 1 mps 761 mmHg 46%
    22:00 +21°C° 0 mm 1 mps 760 mmHg 46%
    23:00 +20°C° 0 mm 1 mps 760 mmHg 45%
    Show more